#timestamp,LO_Frequency,Hit,StdDev 
1583492415.0,286047009.3,P
1583492415.9,286047009.3,N
1583492435.8,286047004.0,N
1583492455.6,286047003.1,N
1583492475.5,286047003.4,N
1583492495.3,286047004.3,N
1583492515.1,286047003.1,N
1583492535.9,286047004.2,N
1583492555.7,286047001.5,N
1583492575.6,286047000.3,N
1583492595.4,286047001.0,N
1583492615.2,286047000.9,N
1583492635.1,286046999.9,N
1583492636.0,286046999.9,N
1583492655.8,286047002.8,N
1583492675.6,286047000.3,N
1583492695.5,286047004.3,N
1583492715.3,286047003.6,N
1583492735.2,286047003.4,N
1583492755.9,286047003.8,N
1583492775.7,286047002.5,N
1583492795.6,286047000.0,N
1583492815.4,286047004.2,N
1583492835.2,286047004.2,N
1583492855.1,286047004.2,N
1583492856.0,286047004.2,N
1583492875.8,286047004.4,N
1583492895.7,286047004.4,N
1583492915.5,286046999.9,N
1583492935.3,286046998.6,N
1583492955.2,286047000.7,N
1583492975.0,286047002.7,N
1583492975.9,286047002.7,N
1583492995.8,286047003.6,N
1583493015.6,286047003.4,N
1583493035.4,286047006.0,Y
1583493055.3,286047000.3,P
1583493075.1,286046998.6,N
1583493125.9,286047001.2,E
1583493135.8,286046996.6,N
1583493155.7,286046995.2,P
1583493175.5,286046996.5,P
1583493195.3,286046998.8,N
1583493215.2,286047002.1,N
1583493235.0,286047001.9,N
1583493235.9,286047001.9,N
1583493255.8,286047000.4,N
1583493275.6,286046999.9,N
1583493295.4,286047000.3,N
1583493315.3,286046998.2,N
1583493335.1,286047000.6,N
1583493355.9,286047002.0,N
1583493375.7,286047001.8,N
1583493395.5,286046999.7,N
1583493415.4,286047004.1,N
1583493435.2,286047002.8,N
1583493455.0,286047000.6,N
1583493455.9,286047000.6,N
1583493475.8,286047000.9,N
1583493495.6,286047001.2,N
1583493515.5,286047002.4,N
1583493535.3,286047002.1,N
1583493555.1,286047001.3,N
1583493575.9,286047002.3,N
1583493595.7,286046999.3,N
1583493615.5,286046999.1,N
1583493635.4,286047000.3,N
1583493655.2,286046999.4,N
1583493675.1,286046998.0,N
1583493676.0,286046998.0,N
1583493695.8,286046995.5,N
1583493715.7,286046995.8,N
1583493735.5,286046998.7,N
1583493755.3,286047000.8,N
1583493775.2,286047002.5,N
1583493795.0,286046998.5,N
1583493795.9,286046998.5,N
1583493815.7,286046999.8,N
1583493835.6,286047001.9,N
1583493855.4,286047001.0,N
1583493875.3,286047001.2,N
1583493895.1,286047001.1,N
1583493896.0,286047001.1,N
1583493915.8,286046999.8,N
1583493935.7,286047000.9,N
1583493955.5,286047000.2,N
1583493975.4,286046996.7,N
1583493995.2,286046995.0,N
1583494015.1,286046995.7,N
1583494016.0,286046995.7,N
1583494035.8,286046997.0,N
1583494055.6,286046998.2,N
1583494075.5,286047001.2,N
1583494095.3,286046997.0,N
1583494115.1,286046997.9,N
1583494135.9,286046997.4,N
1583494155.7,286046998.9,N
1583494175.6,286046998.9,N
1583494195.4,286046998.6,N
1583494215.2,286047000.3,N
1583494235.1,286046999.8,N
1583494236.0,286046999.8,N
1583494255.8,286046999.8,N
1583494275.7,286047002.6,N
1583494295.5,286047002.4,N
1583494315.3,286047000.5,N
1583494335.2,286046998.2,N
1583494355.0,286046997.6,N
1583494355.9,286046997.6,N
1583494375.7,286046999.7,N
1583494395.6,286047001.2,N
1583494415.4,286047000.5,N
1583494435.3,286046999.0,N
1583494455.1,286046998.0,N
1583494475.8,286046997.4,N
1583494495.7,286046997.0,N
1583494515.5,286046996.5,N
1583494535.4,286046999.2,N
1583494555.2,286046999.4,N
1583494575.0,286047001.5,N
1583494575.9,286047001.5,N
1583494595.8,286047002.9,N
1583494615.6,286047004.0,N
1583494635.4,286047004.1,N
1583494655.3,286047002.3,N
1583494675.1,286047000.3,N
1583494695.9,286046998.1,N
1583494715.7,286047000.2,N
1583494735.5,286047000.9,N
1583494755.4,286046998.6,N
1583494775.2,286047000.2,N
1583494795.1,286047002.5,N
1583494796.0,286047002.5,N
1583494815.8,286047002.4,N
1583494835.6,286046998.1,N
1583494855.5,286047000.5,N
1583494875.3,286047000.2,N
1583494895.1,286047004.3,N
1583494915.9,286047000.9,N
1583494935.8,286047001.9,N
1583494955.6,286047000.3,N
1583494975.5,286047001.1,N
1583494995.3,286047000.7,N
1583495015.1,286046999.5,N
1583495035.9,286046997.1,N
1583495055.7,286046996.6,N
1583495075.5,286046997.0,N
1583495095.4,286046998.0,N
1583495115.2,286046999.0,N
1583495135.1,286046999.3,N
1583495136.0,286046999.3,N
1583495155.8,286046998.3,N
1583495175.6,286047000.8,N
1583495195.5,286046999.9,N
1583495215.3,286047001.0,N
1583495235.2,286046998.6,N
1583495255.9,286047001.0,N
1583495275.7,286047004.3,N
1583495295.6,286046999.8,N
1583495315.4,286047002.5,N
1583495335.3,286047004.0,N
1583495355.1,286047002.8,N
1583495356.0,286047002.8,N
1583495375.8,286047001.8,N
1583495395.7,286047003.3,N
1583495415.5,286047005.6,N
1583495435.3,286046999.8,N
1583495455.2,286047008.2,Y
1583495475.0,286047010.8,P
1583495475.9,286047010.8,N
1583495495.8,286047006.1,N
1583495515.6,286047005.1,N
1583495535.4,286047005.8,N
1583495555.3,286047003.6,N
1583495575.1,286047004.4,N
1583495595.9,286047004.1,N
1583495615.7,286047001.7,N
1583495635.5,286047002.1,N
1583495655.4,286046999.8,N
1583495675.2,286047001.5,N
1583495695.0,286047002.1,N
1583495696.0,286047002.1,N
1583495715.8,286046998.6,N
1583495735.6,286047000.7,N
1583495755.5,286047002.6,N
1583495775.3,286047000.6,N
1583495795.1,286047001.0,N
1583495815.9,286047000.0,N
1583495835.7,286047000.8,N
1583495855.6,286046998.8,N
1583495875.4,286046999.1,N
1583495895.2,286046998.3,N
1583495915.1,286046999.1,N
1583495916.0,286046999.1,N
1583495935.8,286046996.9,N
1583495955.7,286047000.7,N
1583495975.5,286046998.4,N
1583495995.3,286046997.1,N
